When you browse on this site, cookies collect data to enhance your experience and personalize the content and advertising you see.
Visit our Privacy Policy to learn more. By continuing to use the site, you agree to this use of cookies and data.
  • In Sweden
  • List of Countries
  • For 7 days
  • Water Temperature
  • Satellite Maps
  • Weather Map
  • Weather Widgets
  • user-avatar
    Login

    Hourly Weather Igls

    Today, 18 June, Tuesday

    Time Temperature Precipitation Wind Pressure Humidity
    00:00 +15°C° 0 mm 1 mps 686 mmHg 90%
    01:00 +15°C° 0 mm 1 mps 686 mmHg 89%
    02:00 +14°C° 0 mm 1 mps 686 mmHg 89%
    03:00 +14°C° 0 mm 1 mps 685 mmHg 89%
    04:00 +14°C° 0 mm 1 mps 685 mmHg 90%
    05:00 +16°C° 0 mm 1 mps 685 mmHg 86%
    06:00 +18°C° 0 mm 1 mps 686 mmHg 82%
    07:00 +18°C° 0 mm 0 mps 686 mmHg 79%
    08:00 +20°C° 0 mm 0 mps 687 mmHg 69%
    09:00 +25°C° 0 mm 1 mps 687 mmHg 59%
    10:00 +27°C° 0 mm 1 mps 687 mmHg 49%
    11:00 +27°C° 0.2 mm 1 mps 687 mmHg 46%
    12:00 +28°C° 0.2 mm 1 mps 687 mmHg 43%
    13:00 +28°C° 0.2 mm 1 mps 687 mmHg 40%
    14:00 +28°C° 0.3 mm 2 mps 686 mmHg 43%
    15:00 +27°C° 0.3 mm 2 mps 686 mmHg 46%
    16:00 +27°C° 0.3 mm 2 mps 686 mmHg 49%
    17:00 +25°C° 1.3 mm 2 mps 685 mmHg 62%
    18:00 +23°C° 1.3 mm 1 mps 685 mmHg 75%
    19:00 +21°C° 1.3 mm 1 mps 684 mmHg 88%
    20:00 +20°C° 1.6 mm 1 mps 685 mmHg 90%
    21:00 +19°C° 1.6 mm 1 mps 685 mmHg 92%
    22:00 +16°C° 1.6 mm 1 mps 685 mmHg 94%
    23:00 +16°C° 0 mm 1 mps 684 mmHg 92%

    Tomorrow, 19 June, Wednesday

    Time Temperature Precipitation Wind Pressure Humidity
    00:00 +16°C° 0 mm 1 mps 684 mmHg 90%
    01:00 +15°C° 0 mm 1 mps 684 mmHg 88%
    02:00 +15°C° 0 mm 1 mps 684 mmHg 87%
    03:00 +15°C° 0 mm 1 mps 683 mmHg 87%
    04:00 +14°C° 0 mm 1 mps 683 mmHg 86%
    05:00 +15°C° 0 mm 0 mps 684 mmHg 83%
    06:00 +17°C° 0 mm 0 mps 684 mmHg 79%
    07:00 +18°C° 0 mm 0 mps 684 mmHg 76%
    08:00 +20°C° 0.4 mm 0 mps 684 mmHg 67%
    09:00 +22°C° 0.4 mm 0 mps 685 mmHg 59%
    10:00 +26°C° 0.4 mm 1 mps 685 mmHg 50%
    11:00 +26°C° 0.7 mm 1 mps 685 mmHg 49%
    12:00 +27°C° 0.7 mm 1 mps 685 mmHg 48%
    13:00 +27°C° 0.7 mm 1 mps 685 mmHg 47%
    14:00 +25°C° 1.9 mm 1 mps 684 mmHg 57%
    15:00 +23°C° 1.9 mm 2 mps 683 mmHg 67%
    16:00 +20°C° 1.9 mm 2 mps 683 mmHg 77%
    17:00 +19°C° 1.3 mm 2 mps 683 mmHg 81%
    18:00 +20°C° 1.3 mm 1 mps 683 mmHg 84%
    19:00 +19°C° 1.3 mm 1 mps 683 mmHg 88%
    20:00 +18°C° 0 mm 1 mps 683 mmHg 86%
    21:00 +16°C° 0 mm 1 mps 683 mmHg 85%
    22:00 +15°C° 0 mm 1 mps 683 mmHg 84%
    23:00 +15°C° 0 mm 1 mps 683 mmHg 82%

    Day after tomorrow, 20 June, Thursday

    Time Temperature Precipitation Wind Pressure Humidity
    00:00 +15°C° 0 mm 1 mps 683 mmHg 81%
    01:00 +15°C° 0 mm 1 mps 683 mmHg 80%
    02:00 +14°C° 0 mm 1 mps 683 mmHg 79%
    03:00 +14°C° 0 mm 1 mps 683 mmHg 79%
    04:00 +14°C° 0 mm 1 mps 683 mmHg 79%
    05:00 +15°C° 0 mm 0 mps 683 mmHg 74%
    06:00 +17°C° 0 mm 0 mps 683 mmHg 69%
    07:00 +19°C° 0 mm 0 mps 684 mmHg 65%
    08:00 +23°C° 0 mm 1 mps 684 mmHg 57%
    09:00 +25°C° 0 mm 1 mps 684 mmHg 49%
    10:00 +27°C° 0 mm 1 mps 684 mmHg 42%
    11:00 +28°C° 0.1 mm 1 mps 684 mmHg 41%
    12:00 +28°C° 0.1 mm 1 mps 684 mmHg 40%
    13:00 +29°C° 0.1 mm 2 mps 684 mmHg 39%
    14:00 +27°C° 0.6 mm 2 mps 684 mmHg 48%
    15:00 +26°C° 0.6 mm 2 mps 683 mmHg 57%
    16:00 +24°C° 0.6 mm 3 mps 683 mmHg 66%
    17:00 +21°C° 1.4 mm 2 mps 683 mmHg 76%
    18:00 +19°C° 1.4 mm 2 mps 683 mmHg 85%
    19:00 +18°C° 1.4 mm 1 mps 683 mmHg 95%
    20:00 +18°C° 0.4 mm 1 mps 684 mmHg 96%
    21:00 +16°C° 0.4 mm 1 mps 684 mmHg 96%
    22:00 +15°C° 0.4 mm 1 mps 684 mmHg 97%
    23:00 +15°C° 0 mm 1 mps 684 mmHg 96%

    21 June, Friday

    Time Temperature Precipitation Wind Pressure Humidity
    00:00 +15°C° 0 mm 1 mps 684 mmHg 95%
    01:00 +14°C° 0 mm 1 mps 684 mmHg 94%
    02:00 +14°C° 0 mm 1 mps 684 mmHg 94%
    03:00 +13°C° 0 mm 0 mps 684 mmHg 94%
    04:00 +13°C° 0 mm 0 mps 684 mmHg 94%
    05:00 +14°C° 0.1 mm 0 mps 684 mmHg 94%
    06:00 +15°C° 0.1 mm 0 mps 685 mmHg 93%
    07:00 +18°C° 0.1 mm 1 mps 685 mmHg 92%
    08:00 +18°C° 1 mm 1 mps 685 mmHg 93%
    09:00 +16°C° 1 mm 1 mps 685 mmHg 94%
    10:00 +16°C° 1 mm 2 mps 685 mmHg 95%
    11:00 +16°C° 0.6 mm 2 mps 685 mmHg 91%
    12:00 +18°C° 0.6 mm 1 mps 685 mmHg 87%
    13:00 +18°C° 0.6 mm 1 mps 685 mmHg 84%
    14:00 +20°C° 0.1 mm 1 mps 685 mmHg 75%
    15:00 +22°C° 0.1 mm 1 mps 685 mmHg 66%
    16:00 +24°C° 0.1 mm 2 mps 685 mmHg 57%
    17:00 +22°C° 0.2 mm 1 mps 685 mmHg 64%
    18:00 +21°C° 0.2 mm 1 mps 685 mmHg 72%
    19:00 +20°C° 0.2 mm 1 mps 685 mmHg 79%
    20:00 +19°C° 0.5 mm 1 mps 686 mmHg 83%
    21:00 +18°C° 0.5 mm 1 mps 686 mmHg 87%
    22:00 +15°C° 0.5 mm 0 mps 686 mmHg 91%
    23:00 +16°C° 0.9 mm 1 mps 686 mmHg 92%

    22 June, Saturday

    Time Temperature Precipitation Wind Pressure Humidity
    00:00 +15°C° 0.9 mm 1 mps 686 mmHg 93%
    01:00 +15°C° 0.9 mm 1 mps 686 mmHg 94%
    02:00 +15°C° 0.3 mm 1 mps 685 mmHg 94%
    03:00 +15°C° 0.3 mm 1 mps 685 mmHg 94%
    04:00 +14°C° 0.3 mm 1 mps 685 mmHg 94%
    05:00 +15°C° 0.8 mm 1 mps 685 mmHg 94%
    06:00 +15°C° 0.8 mm 1 mps 685 mmHg 94%
    07:00 +15°C° 0.8 mm 1 mps 686 mmHg 94%
    08:00 +16°C° 0.5 mm 1 mps 686 mmHg 88%
    09:00 +19°C° 0.5 mm 1 mps 686 mmHg 82%
    10:00 +20°C° 0.5 mm 1 mps 686 mmHg 76%
    11:00 +22°C° 0.1 mm 1 mps 687 mmHg 67%
    12:00 +23°C° 0.1 mm 1 mps 687 mmHg 59%
    13:00 +25°C° 0.1 mm 1 mps 687 mmHg 50%
    14:00 +25°C° 0.4 mm 1 mps 687 mmHg 52%
    15:00 +25°C° 0.4 mm 1 mps 686 mmHg 55%
    16:00 +24°C° 0.4 mm 1 mps 686 mmHg 57%
    17:00 +23°C° 0.6 mm 1 mps 686 mmHg 66%
    18:00 +22°C° 0.6 mm 1 mps 686 mmHg 74%
    19:00 +18°C° 0.6 mm 0 mps 685 mmHg 82%
    20:00 +19°C° 0.6 mm 1 mps 686 mmHg 85%
    21:00 +18°C° 0.6 mm 1 mps 686 mmHg 88%
    22:00 +16°C° 0.6 mm 1 mps 686 mmHg 91%
    23:00 +16°C° 0.2 mm 1 mps 686 mmHg 91%

    23 June, Sunday

    Time Temperature Precipitation Wind Pressure Humidity
    00:00 +15°C° 0.2 mm 1 mps 686 mmHg 91%
    01:00 +15°C° 0.2 mm 1 mps 686 mmHg 92%
    02:00 +14°C° 0 mm 1 mps 685 mmHg 92%
    03:00 +14°C° 0 mm 1 mps 685 mmHg 92%
    04:00 +13°C° 0 mm 0 mps 685 mmHg 92%
    05:00 +14°C° 0 mm 0 mps 686 mmHg 89%
    06:00 +16°C° 0 mm 0 mps 686 mmHg 85%
    07:00 +18°C° 0 mm 0 mps 687 mmHg 82%
    08:00 +20°C° 0 mm 0 mps 687 mmHg 72%
    09:00 +24°C° 0 mm 1 mps 688 mmHg 62%
    10:00 +26°C° 0 mm 1 mps 688 mmHg 52%
    11:00 +27°C° 0.2 mm 1 mps 688 mmHg 50%
    12:00 +28°C° 0.2 mm 1 mps 688 mmHg 48%
    13:00 +28°C° 0.2 mm 1 mps 688 mmHg 46%
    14:00 +27°C° 0.5 mm 1 mps 688 mmHg 51%
    15:00 +26°C° 0.5 mm 1 mps 688 mmHg 56%
    16:00 +26°C° 0.5 mm 1 mps 687 mmHg 61%
    17:00 +24°C° 0.7 mm 1 mps 687 mmHg 70%
    18:00 +23°C° 0.7 mm 1 mps 687 mmHg 78%
    19:00 +20°C° 0.7 mm 0 mps 687 mmHg 87%
    20:00 +21°C° 0.1 mm 1 mps 688 mmHg 88%
    21:00 +19°C° 0.1 mm 1 mps 688 mmHg 90%
    22:00 +18°C° 0.1 mm 1 mps 688 mmHg 91%
    23:00 +18°C° 0 mm 1 mps 688 mmHg 91%
    Show more